DW3766 Weather Reports


Display with metric or nautical units.
time (UTC)temp
F
wind
direction
speed
MPH
gust
MPH
rain 1hr
in
rain 24hr
in
rain mn
in
humidity
%
barometer
mb
20260505102123 70 209 8.0 13.0 0.00 0.00 0.00 86 1007.7
20260505101656 70 194 6.0 12.0 0.00 0.00 0.00 86 1007.8
20260505101124 70 198 5.0 12.0 0.00 0.00 0.00 86 1007.8
20260505100657 70 212 7.0 13.0 0.00 0.00 0.00 86 1007.8
20260505100120 70 230 8.0 13.0 0.00 0.00 0.00 86 1007.9
20260505095653 70 182 7.0 12.0 0.00 0.00 0.00 86 1008.0
20260505095117 70 207 6.0 13.0 0.00 0.00 0.00 86 1007.8
20260505094642 70 242 8.0 13.0 0.00 0.00 0.00 86 1008.0
20260505094115 70 192 6.0 15.0 0.00 0.00 0.00 86 1007.9
20260505093642 70 207 9.0 15.0 0.00 0.00 0.00 86 1007.9
20260505093115 70 167 6.0 13.0 0.00 0.00 0.00 85 1008.0
20260505092639 70 194 8.0 14.0 0.00 0.00 0.00 85 1008.0
20260505092116 70 180 7.0 14.0 0.00 0.00 0.00 85 1008.0
20260505091642 70 201 8.0 12.0 0.00 0.00 0.00 85 1008.1
20260505091155 70 224 7.0 14.0 0.00 0.00 0.00 85 1007.9
20260505090618 70 214 9.0 14.0 0.00 0.00 0.00 85 1008.0
20260505090144 70 210 7.0 10.0 0.00 0.00 0.00 85 1008.1
20260505085617 70 171 7.0 14.0 0.00 0.00 0.00 85 1008.2
20260505085143 70 217 8.0 14.0 0.00 0.00 0.00 84 1008.1
20260505084615 70 225 6.0 15.0 0.00 0.00 0.00 84 1008.2
20260505084141 70 169 8.0 15.0 0.00 0.00 0.00 84 1008.1
20260505083618 70 174 7.0 14.0 0.00 0.00 0.00 84 1008.2
20260505083145 70 198 8.0 14.0 0.00 0.00 0.00 84 1008.3
20260505082657 70 176 8.0 13.0 0.00 0.00 0.00 84 1008.3
20260505082223 70 211 6.0 15.0 0.00 0.00 0.00 84 1008.3
20260505081627 70 184 9.0 15.0 0.00 0.00 0.00 84 1008.2
20260505081201 70 197 7.0 14.0 0.00 0.00 0.00 84 1008.5
20260505080627 70 221 7.0 12.0 0.00 0.00 0.00 84 1008.5
20260505080200 70 174 6.0 13.0 0.00 0.00 0.00 84 1008.5
20260505075706 70 189 4.0 13.0 0.00 0.00 0.00 84 1008.6
20260505075139 70 201 8.0 12.0 0.00 0.00 0.00 84 1008.7
20260505074703 70 213 4.0 7.0 0.00 0.00 0.00 83 1008.6
20260505074139 70 186 4.0 11.0 0.00 0.00 0.00 83 1008.6
20260505073706 70 196 4.0 14.0 0.00 0.00 0.00 83 1008.7
20260505073129 70 196 6.0 11.0 0.00 0.00 0.00 83 1008.7
20260505072704 70 188 7.0 11.0 0.00 0.00 0.00 83 1008.9
20260505072128 71 221 6.0 12.0 0.00 0.00 0.00 83 1009.0
20260505071640 71 167 4.0 12.0 0.00 0.00 0.00 82 1009.0
20260505071147 71 192 5.0 12.0 0.00 0.00 0.00 82 1009.2
20260505070652 71 202 6.0 12.0 0.00 0.00 0.00 82 1009.2
20260505070125 71 221 7.0 15.0 0.00 0.00 0.00 82 1009.4
20260505065623 71 174 7.0 15.0 0.00 0.00 0.00 82 1009.4
20260505065128 71 198 4.0 14.0 0.00 0.00 0.00 82 1009.5
20260505064626 71 205 7.0 14.0 0.00 0.00 0.00 82 1009.6
20260505064132 71 175 5.0 15.0 0.00 0.00 0.00 82 1009.6
20260505063630 71 188 6.0 15.0 0.00 0.00 0.00 82 1009.7
20260505063153 71 165 6.0 13.0 0.00 0.00 0.00 82 1009.7
20260505062617 71 198 6.0 13.0 0.00 0.00 0.00 81 1009.8
20260505062134 71 176 5.0 10.0 0.00 0.00 0.00 81 1009.7
20260505061619 71 138 4.0 13.0 0.00 0.00 0.00 81 1009.8
20260505061134 71 173 3.0 15.0 0.00 0.00 0.00 81 1009.7
20260505060639 71 225 9.0 15.0 0.00 0.00 0.00 81 1009.8
20260505060114 71 184 7.0 12.0 0.00 0.00 0.00 81 1009.8
20260505055618 71 173 5.0 12.0 0.00 0.00 0.00 81 1009.9
20260505055116 72 167 5.0 12.0 0.00 0.00 0.00 81 1009.8
20260505054621 72 180 6.0 13.0 0.00 0.00 0.00 81 1009.9
20260505054126 72 142 7.0 13.0 0.00 0.00 0.00 81 1009.9
20260505053624 72 169 4.0 9.0 0.00 0.00 0.00 81 1009.9
20260505053129 72 201 5.0 18.0 0.00 0.00 0.00 80 1009.8
20260505052626 72 171 8.0 18.0 0.00 0.00 0.00 80 1009.9
20260505052131 72 178 9.0 18.0 0.00 0.00 0.00 80 1009.9
20260505051657 72 179 7.0 14.0 0.00 0.00 0.00 80 1009.9
20260505051130 72 183 5.0 12.0 0.00 0.00 0.00 80 1009.9
20260505050634 72 162 6.0 11.0 0.00 0.00 0.00 80 1009.8
20260505050138 72 207 6.0 11.0 0.00 0.00 0.00 80 1009.8
20260505041651 72 173 7.0 15.0 0.00 0.00 0.00 78 1009.6
20260505041124 72 177 7.0 14.0 0.00 0.00 0.00 78 1009.7
20260505040630 72 178 4.0 7.0 0.00 0.00 0.00 77 1009.8
20260505040201 72 153 3.0 7.0 0.00 0.00 0.00 76 1009.8
20260505035627 72 165 3.0 6.0 0.00 0.00 0.00 76 1009.8
20260505035200 72 163 4.0 6.0 0.00 0.00 0.00 75 1009.7
20260505034704 72 147 2.0 6.0 0.00 0.00 0.00 75 1009.7
20260505034129 73 138 3.0 6.0 0.00 0.00 0.00 74 1009.6
20260505033640 73 149 2.0 6.0 0.00 0.00 0.00 73 1009.5
20260505033206 73 121 3.0 6.0 0.00 0.00 0.00 73 1009.6
20260505032641 73 124 2.0 5.0 0.00 0.00 0.00 72 1009.6
20260505032204 73 127 2.0 8.0 0.00 0.00 0.00 72 1009.7
20260505031637 73 136 4.0 8.0 0.00 0.00 0.00 72 1009.6
20260505031143 73 159 3.0 6.0 0.00 0.00 0.00 72 1009.4
20260505030647 73 150 2.0 4.0 0.00 0.00 0.00 71 1009.5
20260505030200 74 150 2.0 7.0 0.00 0.00 0.00 71 1009.5
20260505025725 74 150 2.0 7.0 0.00 0.00 0.00 71 1009.4
20260505025137 74 134 2.0 5.0 0.00 0.00 0.00 70 1009.4
20260505024643 74 123 2.0 5.0 0.00 0.00 0.00 69 1009.4
20260505024206 74 164 1.0 5.0 0.00 0.00 0.00 69 1009.6
20260505023638 74 164 2.0 5.0 0.00 0.00 0.00 69 1009.5
20260505023144 75 175 2.0 5.0 0.00 0.00 0.00 68 1009.5
20260505022613 75 161 1.0 3.0 0.00 0.00 0.00 68 1009.4
20260505022146 75 161 2.0 3.0 0.00 0.00 0.00 67 1009.4
20260505021712 75 184 1.0 6.0 0.00 0.00 0.00 67 1009.4
20260505021113 75 184 2.0 6.0 0.00 0.00 0.00 66 1009.4
20260505020646 75 169 1.0 4.0 0.00 0.00 0.00 66 1009.3
20260505020151 75 169 2.0 6.0 0.00 0.00 0.00 66 1009.2
20260505015704 75 169 2.0 6.0 0.00 0.00 0.00 66 1009.1
20260505015125 76 184 3.0 8.0 0.00 0.00 0.00 65 1009.1
20260505014658 76 173 3.0 8.0 0.00 0.00 0.00 64 1009.0
20260505014154 76 169 3.0 6.0 0.00 0.00 0.00 64 1009.1
20260505013728 76 154 3.0 8.0 0.00 0.00 0.00 64 1009.0
20260505013206 77 161 4.0 8.0 0.00 0.00 0.00 63 1009.0
20260505012615 77 179 1.0 3.0 0.00 0.00 0.00 63 1009.0
20260505012141 77 167 1.0 7.0 0.00 0.00 0.00 62 1009.0
20260505011654 77 167 4.0 7.0 0.00 0.00 0.00 62 1008.9
20260505011121 77 166 4.0 8.0 0.00 0.00 0.00 62 1009.0
20260505010632 77 200 4.0 8.0 0.00 0.00 0.00 61 1009.0
20260505010131 78 200 5.0 11.0 0.00 0.00 0.00 61 1009.0
20260505005705 78 185 4.0 11.0 0.00 0.00 0.00 61 1009.0
20260505005124 78 167 5.0 11.0 0.00 0.00 0.00 60 1009.0
20260505004655 78 210 5.0 11.0 0.00 0.00 0.00 59 1009.0
20260505004121 78 176 5.0 12.0 0.00 0.00 0.00 59 1008.9
20260505003648 78 213 7.0 15.0 0.00 0.00 0.00 58 1008.9
20260505003217 79 184 6.0 15.0 0.00 0.00 0.00 58 1008.8
20260505002620 79 167 6.0 12.0 0.00 0.00 0.00 58 1008.8
20260505002151 79 215 6.0 12.0 0.00 0.00 0.00 58 1008.8
20260505001654 79 177 5.0 16.0 0.00 0.00 0.00 58 1008.9
20260505001203 79 182 8.0 18.0 0.00 0.00 0.00 57 1008.8
20260505000632 79 175 8.0 14.0 0.00 0.00 0.00 57 1008.8
20260505000159 79 181 6.0 13.0 0.00 0.00 0.00 57 1008.8
20260504235726 79 182 6.0 18.0 0.00 0.00 0.00 57 1008.8
20260504235135 79 222 8.0 15.0 0.00 0.00 0.00 56 1009.0
20260504234659 80 181 6.0 16.0 0.00 0.00 0.00 56 1009.1
20260504234210 80 182 9.0 14.0 0.00 0.00 0.00 55 1009.0
20260504233635 80 177 7.0 14.0 0.00 0.00 0.00 56 1009.1
20260504233208 80 172 6.0 15.0 0.00 0.00 0.00 56 1009.1
20260504232630 80 171 9.0 15.0 0.00 0.00 0.00 55 1009.2
20260504232133 80 165 7.0 18.0 0.00 0.00 0.00 55 1009.3
20260504231705 80 162 10.0 18.0 0.00 0.00 0.00 55 1009.6
20260504231132 80 190 8.0 14.0 0.00 0.00 0.00 55 1009.6
20260504230706 80 178 7.0 13.0 0.00 0.00 0.00 56 1009.5
20260504230130 79 180 7.0 13.0 0.00 0.00 0.00 56 1009.7
20260504225703 79 205 7.0 13.0 0.00 0.00 0.00 57 1009.7
20260504225129 79 217 7.0 15.0 0.00 0.00 0.00 55 1009.7
20260504224642 80 155 8.0 13.0 0.00 0.00 0.00 56 1009.8
20260504224208 80 176 8.0 13.0 0.00 0.00 0.00 55 1009.9
20260504223632 80 179 7.0 13.0 0.00 0.00 0.00 55 1009.9
20260504223137 79 175 7.0 14.0 0.00 0.00 0.00 56 1010.0
20260504222614 79 171 7.0 14.0 0.00 0.00 0.00 57 1010.0
20260504222117 79 203 8.0 14.0 0.00 0.00 0.00 56 1010.1
20260504221628 80 194 8.0 15.0 0.00 0.00 0.00 55 1010.2
20260504221153 80 153 8.0 15.0 0.00 0.00 0.00 55 1010.1
20260504220705 80 216 8.0 15.0 0.00 0.00 0.00 55 1010.1
20260504220230 80 215 9.0 15.0 0.00 0.00 0.00 55 1010.1
20260504215642 80 196 9.0 15.0 0.00 0.00 0.00 55 1010.1
20260504215204 80 157 6.0 13.0 0.00 0.00 0.00 57 1010.1
20260504214629 79 190 6.0 15.0 0.00 0.00 0.00 57 1010.1
20260504214203 79 171 8.0 15.0 0.00 0.00 0.00 56 1010.2
20260504213629 79 191 6.0 14.0 0.00 0.00 0.00 57 1010.1
20260504213202 79 179 8.0 16.0 0.00 0.00 0.00 57 1010.2
20260504212708 79 194 8.0 16.0 0.00 0.00 0.00 58 1010.3
20260504212139 79 172 8.0 13.0 0.00 0.00 0.00 58 1010.4
20260504211706 79 174 7.0 15.0 0.00 0.00 0.00 57 1010.4
20260504211142 79 199 8.0 15.0 0.00 0.00 0.00 57 1010.7
20260504210709 79 168 10.0 19.0 0.00 0.00 0.00 55 1010.7
20260504210140 80 167 7.0 19.0 0.00 0.00 0.00 57 1010.8
20260504205706 80 182 6.0 12.0 0.00 0.00 0.00 57 1010.8
20260504205130 80 175 8.0 13.0 0.00 0.00 0.00 56 1011.1
20260504204705 80 165 8.0 19.0 0.00 0.00 0.00 55 1011.0
20260504204130 79 217 10.0 19.0 0.00 0.00 0.00 55 1011.0
20260504203703 79 198 8.0 19.0 0.00 0.00 0.00 57 1011.2
20260504203132 79 234 8.0 19.0 0.00 0.00 0.00 57 1011.3
20260504202138 79 182 9.0 14.0 0.00 0.00 0.00 56 1011.4
20260504201705 79 183 10.0 14.0 0.00 0.00 0.00 55 1011.6
20260504201138 80 182 8.0 16.0 0.00 0.00 0.00 55 1011.6
20260504200644 80 220 9.0 16.0 0.00 0.00 0.00 55 1011.6
20260504200205 80 194 7.0 16.0 0.00 0.00 0.00 55 1011.6
20260504195635 80 206 9.0 16.0 0.00 0.00 0.00 55 1011.8
20260504195202 80 161 8.0 14.0 0.00 0.00 0.00 54 1011.9
20260504194714 80 231 10.0 19.0 0.00 0.00 0.00 54 1012.1
20260504194121 80 229 10.0 19.0 0.00 0.00 0.00 55 1011.9
20260504193655 80 175 5.0 16.0 0.00 0.00 0.00 55 1011.9
20260504193200 80 215 10.0 21.0 0.00 0.00 0.00 54 1012.0
20260504192734 80 213 8.0 21.0 0.00 0.00 0.00 55 1012.0
20260504192117 79 225 9.0 16.0 0.00 0.00 0.00 55 1012.1
20260504191651 79 178 8.0 16.0 0.00 0.00 0.00 55 1012.3
20260504191117 79 195 11.0 16.0 0.00 0.00 0.00 55 1012.3
20260504190642 79 234 8.0 18.0 0.00 0.00 0.00 56 1012.4
20260504190155 79 168 8.0 18.0 0.00 0.00 0.00 56 1012.3
20260504185618 79 178 7.0 12.0 0.00 0.00 0.00 56 1012.3
20260504185150 79 240 6.0 18.0 0.00 0.00 0.00 59 1012.4
20260504184620 78 186 9.0 18.0 0.00 0.00 0.00 56 1012.5
20260504184132 78 163 8.0 18.0 0.00 0.00 0.00 56 1012.6
20260504183657 78 159 8.0 18.0 0.00 0.00 0.00 57 1012.7
20260504183230 78 167 7.0 14.0 0.00 0.00 0.00 58 1012.8
20260504182634 78 180 9.0 14.0 0.00 0.00 0.00 58 1013.0
20260504182116 78 157 6.0 14.0 0.00 0.00 0.00 57 1013.1
20260504181650 77 213 7.0 14.0 0.00 0.00 0.00 58 1013.0
20260504181216 77 223 8.0 18.0 0.00 0.00 0.00 57 1013.2
20260504180628 77 186 10.0 18.0 0.00 0.00 0.00 58 1013.2
20260504180154 77 225 6.0 15.0 0.00 0.00 0.00 61 1013.2
20260504175620 77 159 10.0 15.0 0.00 0.00 0.00 58 1013.3
20260504175154 77 209 8.0 16.0 0.00 0.00 0.00 58 1013.4
20260504174622 77 219 9.0 16.0 0.00 0.00 0.00 60 1013.4
20260504174131 76 170 9.0 15.0 0.00 0.00 0.00 59 1013.5
20260504173657 76 172 10.0 18.0 0.00 0.00 0.00 60 1013.6
20260504173210 75 224 10.0 18.0 0.00 0.00 0.00 60 1013.7
20260504172731 75 159 7.0 16.0 0.00 0.00 0.00 61 1013.6
20260504172141 75 203 10.0 16.0 0.00 0.00 0.00 62 1013.6
20260504171707 75 205 9.0 15.0 0.00 0.00 0.00 63 1013.7
20260504171139 75 192 8.0 16.0 0.00 0.00 0.00 63 1014.0
20260504170643 74 171 10.0 18.0 0.00 0.00 0.00 63 1014.0
20260504170154 74 227 11.0 18.0 0.00 0.00 0.00 64 1014.0
20260504160155 70 205 11.0 19.0 0.00 0.00 0.00 71 1014.8
20260504151123 68 211 9.0 13.0 0.00 0.00 0.00 75 1015.1
20260504150648 68 219 8.0 11.0 0.00 0.00 0.00 75 1015.0
20260504150121 68 197 6.0 13.0 0.00 0.00 0.00 76 1015.1
20260504141126 66 198 8.0 13.0 0.00 0.00 0.00 77 1014.9
20260504140701 66 163 6.0 14.0 0.00 0.00 0.00 77 1015.0
20260504140130 65 169 9.0 14.0 0.00 0.00 0.00 77 1015.0
20260504130623 63 196 2.0 8.0 0.00 0.00 0.00 79 1015.2
20260504130155 63 182 4.0 8.0 0.00 0.00 0.00 79 1015.2
20260504120213 62 192 2.0 9.0 0.00 0.01 0.00 79 1014.9
20260504110700 62 159 2.0 6.0 0.00 0.01 0.00 78 1014.5
20260504110124 62 171 2.0 5.0 0.00 0.01 0.00 78 1014.6